Time,TemperatureF,DewpointF,PressureIn,WindDirection,WindDirectionDegrees,WindSpeedMPH,WindSpeedGustMPH,Humidity,HourlyPrecipIn,Conditions,Clouds,dailyrainin,SoftwareType,DateUTC
2013-04-04 00:02:00,32.0,21.0,30.35,SSW,206,0.0,2.0,63,0.00,,,0.00,,2013-04-04 05:02:00,
2013-04-04 00:13:00,32.0,21.0,30.35,SSW,206,0.0,2.0,63,0.00,,,0.00,,2013-04-04 05:13:00,
2013-04-04 00:23:00,32.0,22.0,30.35,SSW,206,0.0,1.0,65,0.00,,,0.00,,2013-04-04 05:23:00,
2013-04-04 00:32:00,31.0,21.0,30.34,SSW,193,0.0,3.0,65,0.00,,,0.00,,2013-04-04 05:32:00,
2013-04-04 00:42:00,31.0,21.0,30.34,SSW,193,0.0,3.0,65,0.00,,,0.00,,2013-04-04 05:42:00,
2013-04-04 00:52:00,31.0,21.0,30.34,SSW,193,0.0,1.0,66,0.00,,,0.00,,2013-04-04 05:52:00,
2013-04-04 01:02:00,31.0,21.0,30.33,SSW,192,0.0,1.0,67,0.00,,,0.00,,2013-04-04 06:02:00,
2013-04-04 01:12:00,31.0,21.0,30.33,SSW,192,0.0,1.0,67,0.00,,,0.00,,2013-04-04 06:12:00,
2013-04-04 01:22:00,30.0,21.0,30.33,SSW,192,0.0,2.0,68,0.00,,,0.00,,2013-04-04 06:22:00,
2013-04-04 01:32:00,30.0,21.0,30.32,South,184,0.0,3.0,68,0.00,,,0.00,,2013-04-04 06:32:00,
2013-04-04 01:42:00,30.0,21.0,30.32,South,184,0.0,3.0,68,0.00,,,0.00,,2013-04-04 06:42:00,
2013-04-04 01:52:00,30.0,21.0,30.32,SSE,159,1.0,3.0,69,0.00,,,0.00,,2013-04-04 06:52:00,
2013-04-04 02:02:00,30.0,21.0,30.31,SSE,159,0.0,2.0,69,0.00,,,0.00,,2013-04-04 07:02:00,
2013-04-04 02:12:00,30.0,21.0,30.31,SSE,159,0.0,2.0,69,0.00,,,0.00,,2013-04-04 07:12:00,
2013-04-04 02:22:00,30.0,21.0,30.31,SSE,161,0.0,3.0,69,0.00,,,0.00,,2013-04-04 07:22:00,
2013-04-04 02:32:00,30.0,21.0,30.30,SSE,158,0.0,1.0,70,0.00,,,0.00,,2013-04-04 07:32:00,
2013-04-04 02:43:00,30.0,21.0,30.30,SSE,158,0.0,1.0,70,0.00,,,0.00,,2013-04-04 07:43:00,
2013-04-04 02:52:00,30.0,21.0,30.29,SSE,158,0.0,2.0,70,0.00,,,0.00,,2013-04-04 07:52:00,
2013-04-04 03:02:00,30.0,21.0,30.29,SSE,148,0.0,4.0,70,0.00,,,0.00,,2013-04-04 08:02:00,
2013-04-04 03:12:00,30.0,21.0,30.29,SSE,148,0.0,4.0,70,0.00,,,0.00,,2013-04-04 08:12:00,
2013-04-04 03:23:00,30.0,22.0,30.29,SE,146,1.0,4.0,71,0.00,,,0.00,,2013-04-04 08:23:00,
2013-04-04 03:32:00,29.0,21.0,30.28,SE,144,0.0,2.0,72,0.00,,,0.00,,2013-04-04 08:32:00,
2013-04-04 03:43:00,29.0,21.0,30.28,SE,144,0.0,2.0,72,0.00,,,0.00,,2013-04-04 08:43:00,
2013-04-04 03:52:00,29.0,21.0,30.28,SE,144,0.0,2.0,72,0.00,,,0.00,,2013-04-04 08:52:00,
2013-04-04 04:02:00,29.0,21.0,30.27,SE,137,0.0,2.0,72,0.00,,,0.00,,2013-04-04 09:02:00,
2013-04-04 04:12:00,29.0,21.0,30.27,SE,137,0.0,2.0,72,0.00,,,0.00,,2013-04-04 09:12:00,
2013-04-04 04:22:00,29.0,21.0,30.26,SE,137,0.0,1.0,73,0.00,,,0.00,,2013-04-04 09:22:00,
2013-04-04 04:33:00,28.0,21.0,30.26,SE,137,0.0,1.0,74,0.00,,,0.00,,2013-04-04 09:33:00,
2013-04-04 04:43:00,28.0,21.0,30.26,SE,137,0.0,1.0,74,0.00,,,0.00,,2013-04-04 09:43:00,
2013-04-04 04:53:00,28.0,21.0,30.25,SE,137,0.0,2.0,76,0.00,,,0.00,,2013-04-04 09:53:00,
2013-04-04 05:04:00,27.0,21.0,30.24,SE,137,0.0,0.0,77,0.00,,,0.00,,2013-04-04 10:04:00,
2013-04-04 05:12:00,27.0,21.0,30.24,SE,137,0.0,0.0,77,0.00,,,0.00,,2013-04-04 10:12:00,
2013-04-04 05:23:00,27.0,21.0,30.24,SE,137,0.0,3.0,79,0.00,,,0.00,,2013-04-04 10:23:00,
2013-04-04 05:33:00,28.0,22.0,30.24,SE,137,0.0,2.0,78,0.00,,,0.00,,2013-04-04 10:33:00,
2013-04-04 05:42:00,28.0,22.0,30.24,SE,137,0.0,2.0,78,0.00,,,0.00,,2013-04-04 10:42:00,
2013-04-04 05:53:00,28.0,22.0,30.24,SE,139,1.0,3.0,77,0.00,,,0.00,,2013-04-04 10:53:00,
2013-04-04 06:02:00,28.0,22.0,30.23,SE,139,0.0,2.0,78,0.00,,,0.00,,2013-04-04 11:02:00,
2013-04-04 06:12:00,28.0,22.0,30.23,SE,139,0.0,2.0,78,0.00,,,0.00,,2013-04-04 11:12:00,
2013-04-04 06:22:00,27.0,21.0,30.24,SE,139,0.0,0.0,79,0.00,,,0.00,,2013-04-04 11:22:00,
2013-04-04 06:33:00,27.0,22.0,30.24,SE,139,0.0,1.0,80,0.00,,,0.00,,2013-04-04 11:33:00,
2013-04-04 06:42:00,27.0,22.0,30.24,SE,139,0.0,1.0,80,0.00,,,0.00,,2013-04-04 11:42:00,
2013-04-04 06:53:00,27.0,22.0,30.24,SE,139,0.0,0.0,80,0.00,,,0.00,,2013-04-04 11:53:00,
2013-04-04 07:02:00,27.0,22.0,30.24,SE,139,0.0,0.0,82,0.00,,,0.00,,2013-04-04 12:02:00,
2013-04-04 07:12:00,27.0,22.0,30.24,SE,139,0.0,0.0,82,0.00,,,0.00,,2013-04-04 12:12:00,
2013-04-04 07:22:00,27.0,22.0,30.24,SE,139,0.0,1.0,82,0.00,,,0.00,,2013-04-04 12:22:00,
2013-04-04 07:32:00,27.0,22.0,30.24,SE,139,0.0,1.0,82,0.00,,,0.00,,2013-04-04 12:32:00,
2013-04-04 07:43:00,27.0,22.0,30.24,SE,139,0.0,1.0,82,0.00,,,0.00,,2013-04-04 12:43:00,
2013-04-04 07:52:00,28.0,23.0,30.24,SE,139,0.0,1.0,81,0.00,,,0.00,,2013-04-04 12:52:00,
2013-04-04 08:02:00,28.0,23.0,30.24,SE,139,0.0,2.0,80,0.00,,,0.00,,2013-04-04 13:02:00,
2013-04-04 08:12:00,28.0,23.0,30.24,SE,139,0.0,2.0,80,0.00,,,0.00,,2013-04-04 13:12:00,
2013-04-04 08:22:00,29.0,23.0,30.24,SE,139,1.0,2.0,79,0.00,,,0.00,,2013-04-04 13:22:00,
2013-04-04 08:32:00,32.0,26.0,30.24,SSE,162,1.0,3.0,79,0.00,,,0.00,,2013-04-04 13:32:00,
2013-04-04 08:42:00,32.0,26.0,30.24,SSE,162,1.0,3.0,79,0.00,,,0.00,,2013-04-04 13:42:00,
2013-04-04 08:52:00,35.0,27.0,30.23,SSW,211,2.0,5.0,71,0.00,,,0.00,,2013-04-04 13:52:00,
2013-04-04 09:03:00,37.0,26.0,30.23,South,177,3.0,7.0,65,0.00,,,0.00,,2013-04-04 14:03:00,
2013-04-04 09:13:00,37.0,26.0,30.23,South,177,3.0,7.0,65,0.00,,,0.00,,2013-04-04 14:13:00,
2013-04-04 09:22:00,40.0,27.0,30.22,SW,219,4.0,8.0,60,0.00,,,0.00,,2013-04-04 14:22:00,
2013-04-04 09:32:00,40.0,27.0,30.22,SW,219,4.0,8.0,60,0.00,,,0.00,,2013-04-04 14:32:00,
2013-04-04 09:42:00,40.0,27.0,30.22,SW,219,4.0,8.0,60,0.00,,,0.00,,2013-04-04 14:42:00,
2013-04-04 09:52:00,42.0,26.0,30.21,South,176,4.0,8.0,52,0.00,,,0.00,,2013-04-04 14:52:00,
2013-04-04 10:02:00,44.0,27.0,30.20,SSE,159,4.0,8.0,50,0.00,,,0.00,,2013-04-04 15:02:00,
2013-04-04 10:12:00,44.0,27.0,30.20,SSE,159,4.0,8.0,50,0.00,,,0.00,,2013-04-04 15:12:00,
2013-04-04 10:23:00,44.0,25.0,30.20,SW,215,4.0,8.0,47,0.00,,,0.00,,2013-04-04 15:23:00,
2013-04-04 10:33:00,45.0,24.0,30.19,SW,220,4.0,7.0,43,0.00,,,0.00,,2013-04-04 15:33:00,
2013-04-04 10:43:00,45.0,24.0,30.19,SW,220,4.0,7.0,43,0.00,,,0.00,,2013-04-04 15:43:00,
2013-04-04 10:53:00,47.0,24.0,30.19,SW,219,1.0,7.0,40,0.00,,,0.00,,2013-04-04 15:53:00,
2013-04-04 11:03:00,48.0,23.0,30.18,NW,306,0.0,4.0,37,0.00,,,0.00,,2013-04-04 16:03:00,
2013-04-04 11:12:00,48.0,23.0,30.18,NW,306,0.0,4.0,37,0.00,,,0.00,,2013-04-04 16:12:00,
2013-04-04 11:24:00,49.0,25.0,30.17,NW,309,3.0,6.0,38,0.00,,,0.00,,2013-04-04 16:24:00,
2013-04-04 11:32:00,49.0,24.0,30.18,NNW,340,3.0,7.0,37,0.00,,,0.00,,2013-04-04 16:32:00,
2013-04-04 11:42:00,49.0,24.0,30.18,NNW,340,3.0,7.0,37,0.00,,,0.00,,2013-04-04 16:42:00,
2013-04-04 11:53:00,50.0,24.0,30.16,WSW,241,2.0,6.0,36,0.00,,,0.00,,2013-04-04 16:53:00,
2013-04-04 12:03:00,50.0,22.0,30.16,NNE,22,0.0,7.0,33,0.00,,,0.00,,2013-04-04 17:03:00,
2013-04-04 12:13:00,50.0,22.0,30.16,NNE,22,0.0,7.0,33,0.00,,,0.00,,2013-04-04 17:13:00,
2013-04-04 12:22:00,51.0,24.0,30.15,ESE,112,1.0,5.0,34,0.00,,,0.00,,2013-04-04 17:22:00,
2013-04-04 12:33:00,52.0,25.0,30.14,WNW,300,2.0,7.0,35,0.00,,,0.00,,2013-04-04 17:33:00,
2013-04-04 12:42:00,52.0,25.0,30.14,WNW,300,2.0,7.0,35,0.00,,,0.00,,2013-04-04 17:42:00,
2013-04-04 12:52:00,52.0,24.0,30.13,West,272,1.0,7.0,33,0.00,,,0.00,,2013-04-04 17:52:00,
2013-04-04 13:02:00,52.0,24.0,30.13,North,360,3.0,7.0,33,0.00,,,0.00,,2013-04-04 18:02:00,
2013-04-04 13:12:00,52.0,24.0,30.13,North,360,3.0,7.0,33,0.00,,,0.00,,2013-04-04 18:12:00,
2013-04-04 13:23:00,53.0,23.0,30.12,SSW,204,3.0,7.0,31,0.00,,,0.00,,2013-04-04 18:23:00,
2013-04-04 13:32:00,54.0,24.0,30.11,SW,228,2.0,7.0,31,0.00,,,0.00,,2013-04-04 18:32:00,
2013-04-04 13:43:00,54.0,24.0,30.11,SW,228,2.0,7.0,31,0.00,,,0.00,,2013-04-04 18:43:00,
2013-04-04 13:52:00,53.0,23.0,30.10,NW,306,3.0,6.0,31,0.00,,,0.00,,2013-04-04 18:52:00,
2013-04-04 14:02:00,54.0,24.0,30.09,NW,310,2.0,5.0,31,0.00,,,0.00,,2013-04-04 19:02:00,
2013-04-04 14:12:00,54.0,24.0,30.09,NW,310,2.0,5.0,31,0.00,,,0.00,,2013-04-04 19:12:00,
2013-04-04 14:22:00,55.0,28.0,30.09,NW,321,1.0,4.0,35,0.00,,,0.00,,2013-04-04 19:22:00,
2013-04-04 14:32:00,56.0,23.0,30.08,WSW,257,1.0,5.0,27,0.00,,,0.00,,2013-04-04 19:32:00,
2013-04-04 14:42:00,56.0,23.0,30.08,WSW,257,1.0,5.0,27,0.00,,,0.00,,2013-04-04 19:42:00,
2013-04-04 14:52:00,56.0,24.0,30.07,SW,224,2.0,9.0,29,0.00,,,0.00,,2013-04-04 19:52:00,
2013-04-04 15:03:00,56.0,23.0,30.07,SSW,194,6.0,8.0,28,0.00,,,0.00,,2013-04-04 20:03:00,
2013-04-04 15:12:00,56.0,23.0,30.07,SSW,194,6.0,8.0,28,0.00,,,0.00,,2013-04-04 20:12:00,
2013-04-04 15:22:00,57.0,24.0,30.06,SSW,205,3.0,7.0,28,0.00,,,0.00,,2013-04-04 20:22:00,
2013-04-04 15:32:00,57.0,25.0,30.06,SSW,194,4.0,9.0,29,0.00,,,0.00,,2013-04-04 20:32:00,
2013-04-04 15:42:00,57.0,25.0,30.06,SSW,194,4.0,9.0,29,0.00,,,0.00,,2013-04-04 20:42:00,
2013-04-04 15:53:00,57.0,24.0,30.05,South,184,2.0,8.0,28,0.00,,,0.00,,2013-04-04 20:53:00,
2013-04-04 16:02:00,57.0,22.0,30.04,North,360,2.0,8.0,25,0.00,,,0.00,,2013-04-04 21:02:00,
2013-04-04 16:12:00,57.0,22.0,30.04,North,360,2.0,8.0,25,0.00,,,0.00,,2013-04-04 21:12:00,
2013-04-04 16:22:00,58.0,25.0,30.04,WSW,251,2.0,7.0,28,0.00,,,0.00,,2013-04-04 21:22:00,
2013-04-04 16:32:00,58.0,23.0,30.03,WSW,244,1.0,6.0,26,0.00,,,0.00,,2013-04-04 21:32:00,
2013-04-04 16:43:00,58.0,23.0,30.03,WSW,244,1.0,6.0,26,0.00,,,0.00,,2013-04-04 21:43:00,
2013-04-04 16:53:00,59.0,23.0,30.03,WNW,300,2.0,8.0,25,0.00,,,0.00,,2013-04-04 21:53:00,
2013-04-04 17:03:00,59.0,23.0,30.02,WSW,242,1.0,5.0,25,0.00,,,0.00,,2013-04-04 22:03:00,
2013-04-04 17:12:00,59.0,23.0,30.02,WSW,242,1.0,5.0,25,0.00,,,0.00,,2013-04-04 22:12:00,
2013-04-04 17:23:00,59.0,23.0,30.02,NNW,348,0.0,11.0,25,0.00,,,0.00,,2013-04-04 22:23:00,
2013-04-04 17:33:00,59.0,25.0,30.02,SW,223,1.0,7.0,27,0.00,,,0.00,,2013-04-04 22:33:00,
2013-04-04 17:42:00,59.0,25.0,30.02,SW,223,1.0,7.0,27,0.00,,,0.00,,2013-04-04 22:42:00,
2013-04-04 17:53:00,59.0,24.0,30.02,WNW,296,1.0,5.0,26,0.00,,,0.00,,2013-04-04 22:53:00,
2013-04-04 18:03:00,59.0,24.0,30.02,West,265,2.0,7.0,26,0.00,,,0.00,,2013-04-04 23:03:00,
2013-04-04 18:12:00,59.0,24.0,30.02,West,265,2.0,7.0,26,0.00,,,0.00,,2013-04-04 23:12:00,
2013-04-04 18:22:00,59.0,24.0,30.02,NNW,334,1.0,5.0,26,0.00,,,0.00,,2013-04-04 23:22:00,
2013-04-04 18:32:00,58.0,22.0,30.01,South,183,0.0,7.0,25,0.00,,,0.00,,2013-04-04 23:32:00,
2013-04-04 18:42:00,58.0,22.0,30.01,South,183,0.0,7.0,25,0.00,,,0.00,,2013-04-04 23:42:00,
2013-04-04 18:52:00,58.0,24.0,30.01,WSW,254,1.0,6.0,27,0.00,,,0.00,,2013-04-04 23:52:00,
2013-04-04 19:02:00,56.0,22.0,30.01,SW,234,2.0,5.0,26,0.00,,,0.00,,2013-04-05 00:02:00,
2013-04-04 19:12:00,56.0,22.0,30.01,SW,234,2.0,5.0,26,0.00,,,0.00,,2013-04-05 00:12:00,
2013-04-04 19:22:00,56.0,24.0,30.01,WSW,237,0.0,3.0,29,0.00,,,0.00,,2013-04-05 00:22:00,
2013-04-04 19:32:00,54.0,25.0,30.01,NW,324,0.0,3.0,32,0.00,,,0.00,,2013-04-05 00:32:00,
2013-04-04 19:42:00,54.0,25.0,30.01,NW,324,0.0,3.0,32,0.00,,,0.00,,2013-04-05 00:42:00,
2013-04-04 19:52:00,52.0,25.0,30.00,NW,324,0.0,1.0,34,0.00,,,0.00,,2013-04-05 00:52:00,
2013-04-04 20:02:00,51.0,25.0,30.00,NW,324,0.0,1.0,36,0.00,,,0.00,,2013-04-05 01:02:00,
2013-04-04 20:12:00,51.0,25.0,30.00,NW,324,0.0,1.0,36,0.00,,,0.00,,2013-04-05 01:12:00,
2013-04-04 20:22:00,50.0,25.0,30.00,NW,324,0.0,1.0,38,0.00,,,0.00,,2013-04-05 01:22:00,
2013-04-04 20:32:00,49.0,25.0,30.01,NW,324,0.0,0.0,38,0.00,,,0.00,,2013-04-05 01:32:00,
2013-04-04 20:42:00,49.0,25.0,30.01,NW,324,0.0,0.0,38,0.00,,,0.00,,2013-04-05 01:42:00,
2013-04-04 20:52:00,48.0,25.0,30.01,NW,324,0.0,1.0,40,0.00,,,0.00,,2013-04-05 01:52:00,
2013-04-04 21:03:00,47.0,25.0,30.01,NW,324,0.0,0.0,41,0.00,,,0.00,,2013-04-05 02:03:00,
2013-04-04 21:12:00,47.0,25.0,30.01,NW,324,0.0,0.0,41,0.00,,,0.00,,2013-04-05 02:12:00,
2013-04-04 21:22:00,46.0,25.0,30.01,NW,324,0.0,1.0,43,0.00,,,0.00,,2013-04-05 02:22:00,
2013-04-04 21:32:00,46.0,28.0,30.01,NW,324,0.0,0.0,49,0.00,,,0.00,,2013-04-05 02:32:00,
2013-04-04 21:42:00,46.0,28.0,30.01,NW,324,0.0,0.0,49,0.00,,,0.00,,2013-04-05 02:42:00,
2013-04-04 21:52:00,45.0,25.0,30.01,NW,324,0.0,0.0,46,0.00,,,0.00,,2013-04-05 02:52:00,
2013-04-04 22:02:00,44.0,25.0,30.01,NW,324,0.0,1.0,47,0.00,,,0.00,,2013-04-05 03:02:00,
2013-04-04 22:12:00,44.0,25.0,30.01,NW,324,0.0,1.0,47,0.00,,,0.00,,2013-04-05 03:12:00,
2013-04-04 22:22:00,44.0,25.0,30.01,NW,324,0.0,1.0,47,0.00,,,0.00,,2013-04-05 03:22:00,
2013-04-04 22:32:00,44.0,25.0,30.01,NW,324,0.0,0.0,47,0.00,,,0.00,,2013-04-05 03:32:00,
2013-04-04 22:43:00,44.0,25.0,30.01,NW,324,0.0,0.0,47,0.00,,,0.00,,2013-04-05 03:43:00,
2013-04-04 22:53:00,44.0,25.0,30.01,NW,324,0.0,0.0,47,0.00,,,0.00,,2013-04-05 03:53:00,
2013-04-04 23:02:00,43.0,28.0,30.01,NW,324,0.0,1.0,56,0.00,,,0.00,,2013-04-05 04:02:00,
2013-04-04 23:12:00,43.0,28.0,30.01,NW,324,0.0,1.0,56,0.00,,,0.00,,2013-04-05 04:12:00,
2013-04-04 23:22:00,42.0,24.0,30.01,NW,324,0.0,0.0,49,0.00,,,0.00,,2013-04-05 04:22:00,
2013-04-04 23:32:00,42.0,26.0,30.01,NW,324,0.0,0.0,52,0.00,,,0.00,,2013-04-05 04:32:00,
2013-04-04 23:42:00,42.0,26.0,30.01,NW,324,0.0,0.0,52,0.00,,,0.00,,2013-04-05 04:42:00,
2013-04-04 23:52:00,41.0,25.0,30.01,NW,324,0.0,0.0,52,0.00,,,0.00,,2013-04-05 04:52:00,